EST,Max TemperatureF,Mean TemperatureF,Min TemperatureF,Max Dew PointF,MeanDew PointF,Min DewpointF,Max Humidity, Mean Humidity, Min Humidity, Max Sea Level PressureIn, Mean Sea Level PressureIn, Min Sea Level PressureIn, Max VisibilityMiles, Mean VisibilityMiles, Min VisibilityMiles, Max Wind SpeedMPH, Mean Wind SpeedMPH, Max Gust SpeedMPH,PrecipitationIn, CloudCover, Events, WindDirDegrees
2012-12-1,60,51,42,50,45,41,100,88,51,30.43,30.37,30.34,10,4,0,7,2,,0.02,0,Fog,348
2012-12-2,64,54,44,52,48,43,100,86,56,30.44,30.38,30.30,10,5,0,8,2,,0.01,1,Fog,126
2012-12-3,73,63,53,59,55,49,100,81,53,30.32,30.29,30.25,10,9,2,13,7,18,0.00,0,,226
2012-12-4,73,64,55,60,57,54,97,83,59,30.36,30.29,30.23,10,10,6,13,6,,0.01,1,,221
2012-12-5,73,63,53,57,53,45,96,77,53,30.22,30.17,30.10,10,10,5,17,8,24,0.01,4,,279
2012-12-6,55,52,50,46,42,40,80,70,62,30.31,30.25,30.21,10,10,10,18,13,25,0.00,7,,39
2012-12-7,66,58,51,64,57,47,100,91,83,30.19,30.10,30.01,10,8,2,12,8,21,0.13,7,Rain,84
2012-12-8,69,62,55,63,60,54,100,93,68,30.10,30.00,29.95,10,4,0,12,4,,0.05,5,Fog-Rain,234
2012-12-9,73,63,53,62,56,52,100,87,53,30.19,30.12,30.05,10,6,0,10,3,,0.00,3,Fog,166
2012-12-10,73,68,63,68,65,60,100,92,78,30.02,29.87,29.80,10,8,2,17,7,25,0.14,5,Rain,190
2012-12-11,72,62,53,70,60,50,100,86,68,30.13,29.94,29.79,10,9,1,15,9,23,0.15,6,Rain,263
2012-12-12,55,52,48,52,49,48,100,89,80,30.27,30.19,30.11,10,9,5,23,15,31,0.46,8,Rain,25
2012-12-13,54,51,48,52,48,44,100,88,76,30.30,30.23,30.14,10,8,3,26,20,38,0.78,6,Rain,7
2012-12-14,57,52,48,47,45,43,89,80,62,30.36,30.29,30.25,10,10,10,16,11,23,0.00,0,,25
2012-12-15,57,52,48,53,47,41,87,79,68,30.29,30.21,30.12,10,10,10,10,7,,0.00,2,,59
2012-12-16,63,61,59,63,59,56,100,93,83,30.11,30.04,29.92,10,7,1,10,5,,0.12,7,Rain,227
2012-12-17,64,62,59,63,59,57,100,94,82,29.91,29.83,29.67,10,5,0,14,3,23,0.39,8,Fog-Rain,297
2012-12-18,66,58,51,57,52,40,93,79,54,29.92,29.75,29.67,10,10,4,18,10,32,0.02,2,Rain,258
2012-12-19,64,53,42,48,42,38,89,68,41,30.15,30.03,29.91,10,10,10,15,7,,0.00,0,,249
2012-12-20,68,60,53,61,51,43,81,72,61,30.19,30.01,29.64,10,10,10,17,12,29,0.01,2,Rain,114
2012-12-21,68,56,43,64,41,25,94,64,44,29.80,29.61,29.45,10,8,2,29,23,39,0.25,4,Rain,236
2012-12-22,50,44,37,30,26,25,70,53,38,30.12,29.98,29.81,,,,28,19,37,0.00,0,,267
2012-12-23,54,43,32,38,28,19,76,56,30,30.20,30.12,30.07,,,,9,6,,0.00,0,,240
2012-12-24,64,54,43,47,39,31,80,61,29,30.10,30.03,29.95,10,10,10,13,6,21,0.02,2,,212
2012-12-25,55,50,46,48,46,43,89,82,74,30.14,30.08,29.96,10,10,10,15,8,22,0.00,4,,39
2012-12-26,69,60,51,66,57,42,100,89,69,30.08,29.74,29.47,10,6,1,29,15,41,1.47,7,Rain,140
2012-12-27,52,48,44,43,36,33,74,64,50,30.06,29.85,29.62,10,10,10,24,17,34,0.00,1,,282
2012-12-28,48,42,37,39,33,29,79,67,60,30.19,30.12,30.05,10,10,10,10,7,,0.00,0,,17
2012-12-29,57,52,45,51,45,35,100,84,68,30.00,29.73,29.56,10,8,1,21,11,30,1.09,6,Rain,330
2012-12-30,48,42,37,33,27,23,73,54,37,30.40,30.22,29.91,10,10,10,22,16,31,0.00,0,,291
2012-12-31,54,44,35,44,32,25,78,62,34,30.41,30.31,30.16,,,,13,7,21,0.00,1,,239